K0OHU-1 Weather Reports


Display with metric or nautical units.
time (UTC)temp
F
wind
direction
speed
MPH
gust
MPH
rain 1hr
in
rain 24hr
in
rain mn
in
humidity
%
barometer
mb
20140831081836 54 75 0.0 0.0 0.00 0.00 0.00 79 1012.3
20140831080335 55 75 0.0 0.0 0.00 0.00 0.00 77 1011.3
20140831074825 55 75 0.0 0.0 0.00 0.00 0.00 77 1012.2
20140831073335 55 75 0.0 0.0 0.00 0.00 0.00 76 1012.5
20140831071840 56 75 0.0 0.0 0.00 0.00 0.00 75 1012.2
20140831070334 56 75 0.0 0.0 0.00 0.00 0.00 74 1012.4
20140831064841 57 75 0.0 0.0 0.00 0.00 0.00 73 1012.5
20140831063332 57 75 0.0 0.0 0.00 0.00 0.00 73 1012.5
20140831061844 58 75 0.0 0.0 0.00 0.00 0.00 71 1012.8
20140831060336 58 75 0.0 0.0 0.00 0.00 0.00 70 1014.2
20140831054832 59 75 0.0 0.0 0.00 0.00 0.00 68 1013.4
20140831053341 60 75 0.0 0.0 0.00 0.00 0.00 66 1014.3
20140831051851 61 75 0.0 0.0 0.00 0.00 0.00 63 1013.6
20140831050342 62 75 0.0 0.0 0.00 0.00 0.00 60 1015.2
20140831044852 63 75 0.0 0.0 0.00 0.00 0.00 57 1014.1
20140831043342 65 75 0.0 0.0 0.00 0.00 0.00 54 1014.2
20140831041846 66 75 0.0 0.0 0.00 0.00 0.00 50 1014.2
20140831040340 67 75 0.0 0.0 0.00 0.00 0.00 50 1015.5
20140831034846 67 75 0.0 1.0 0.00 0.00 0.00 49 1014.1
20140831033356 68 75 0.0 0.0 0.00 0.00 0.00 48 1014.6
20140831031845 69 75 0.0 0.0 0.00 0.00 0.00 46 1014.8
20140831030355 70 75 0.0 0.0 0.00 0.00 0.00 44 1014.7
20140831024843 71 75 0.0 0.0 0.00 0.00 0.00 42 1015.2
20140831023356 72 75 0.0 1.0 0.00 0.00 0.00 40 1014.9
20140831021843 72 310 0.0 8.0 0.00 0.00 0.00 40 1015.1
20140831020354 71 52 3.0 8.0 0.00 0.00 0.00 45 1015.3
20140831014846 72 328 0.0 0.0 0.00 0.00 0.00 49 1013.9
20140831013355 73 327 0.0 0.0 0.00 0.00 0.00 44 1014.2
20140831011841 73 327 0.0 0.0 0.00 0.00 0.00 41 1013.7
20140831010354 74 328 0.0 0.0 0.00 0.00 0.00 41 1013.5
20140831004841 75 328 0.0 0.0 0.00 0.00 0.00 39 1012.8
20140831003351 75 328 0.0 0.0 0.00 0.00 0.00 39 1012.8
20140831001851 76 328 0.0 0.0 0.00 0.00 0.00 36 1013.2
20140831000351 76 141 1.0 11.0 0.00 0.00 0.00 35 1013.5
20140830234847 76 30 0.0 0.0 0.00 0.00 0.00 37 1013.5
20140830233346 77 281 1.0 9.0 0.00 0.00 0.00 37 1014.4
20140830231846 79 304 1.0 5.0 0.00 0.00 0.00 35 1013.0
20140830230346 82 212 0.0 0.0 0.00 0.00 0.00 37 1012.3
20140830224852 83 211 0.0 0.0 0.00 0.00 0.00 30 1012.1
20140830223341 84 212 0.0 1.0 0.00 0.00 0.00 31 1012.5
20140830221846 85 141 0.0 1.0 0.00 0.00 0.00 27 1012.5
20140830220357 87 146 0.0 0.0 0.00 0.00 0.00 28 1012.3
20140830214845 89 141 0.0 5.0 0.00 0.00 0.00 25 1012.4
20140830213359 87 155 0.0 4.0 0.00 0.00 0.00 26 1012.1
20140830211846 82 143 0.0 2.0 0.00 0.00 0.00 32 1012.3
20140830210356 84 144 0.0 6.0 0.00 0.00 0.00 34 1013.1
20140830204844 86 61 0.0 2.0 0.00 0.00 0.00 25 1012.8
20140830203354 90 61 0.0 2.0 0.00 0.00 0.00 24 1012.8
20140830201849 90 46 0.0 1.0 0.00 0.00 0.00 25 1013.1
20140830200353 89 84 0.0 6.0 0.00 0.00 0.00 22 1013.8
20140830194858 90 57 0.0 1.0 0.00 0.00 0.00 24 1013.4
20140830193350 90 63 0.0 1.0 0.00 0.00 0.00 24 1013.6
20140830191859 90 63 0.0 1.0 0.00 0.00 0.00 25 1013.8
20140830190349 89 63 0.0 4.0 0.00 0.00 0.00 27 1014.1
20140830184856 89 77 1.0 4.0 0.00 0.00 0.00 26 1014.7
20140830183349 88 89 0.0 2.0 0.00 0.00 0.00 28 1014.6
20140830181854 87 94 1.0 4.0 0.00 0.00 0.00 29 1014.8
20140830180405 86 78 1.0 4.0 0.00 0.00 0.00 29 1015.2
20140830174854 84 98 0.0 2.0 0.00 0.00 0.00 34 1015.2
20140830173406 84 120 0.0 5.0 0.00 0.00 0.00 34 1015.4
20140830171851 83 76 0.0 2.0 0.00 0.00 0.00 35 1015.9
20140830170404 81 74 0.0 3.0 0.00 0.00 0.00 40 1016.4
20140830164850 80 76 0.0 1.0 0.00 0.00 0.00 40 1016.6
20140830163401 78 75 0.0 4.0 0.00 0.00 0.00 44 1016.3
20140830161851 78 75 0.0 1.0 0.00 0.00 0.00 42 1016.5
20140830160401 76 75 0.0 1.0 0.00 0.00 0.00 46 1017.0
20140830154907 73 76 0.0 1.0 0.00 0.00 0.00 53 1016.9
20140830153401 71 42 0.0 1.0 0.00 0.00 0.00 52 1017.3
20140830151858 69 341 0.0 0.0 0.00 0.00 0.00 59 1017.7
20140830150357 67 341 0.0 0.0 0.00 0.00 0.00 61 1017.3
20140830144907 63 341 0.0 0.0 0.00 0.00 0.00 68 1017.9
20140830143355 59 341 0.0 0.0 0.00 0.00 0.00 76 1018.1
20140830141855 55 341 0.0 0.0 0.00 0.00 0.00 85 1018.2
20140830140408 51 341 0.0 0.0 0.00 0.00 0.00 89 1018.2
20140830134854 50 341 0.0 0.0 0.00 0.00 0.00 90 1018.0
20140830133402 49 341 0.0 0.0 0.00 0.00 0.00 91 1018.1
20140830131850 47 341 0.0 0.0 0.00 0.00 0.00 91 1018.4
20140830130400 47 341 0.0 0.0 0.00 0.00 0.00 91 1018.7
20140830124904 47 341 0.0 0.0 0.00 0.00 0.00 91 1017.8
20140830123357 47 341 0.0 0.0 0.00 0.00 0.00 91 1017.8
20140830121852 47 341 0.0 0.0 0.00 0.00 0.00 91 1017.7
20140830120351 47 341 0.0 0.0 0.00 0.00 0.00 90 1017.8
20140830114859 47 341 0.0 0.0 0.00 0.00 0.00 90 1017.6
20140830113351 47 341 0.0 0.0 0.00 0.00 0.00 89 1017.6
20140830111857 47 341 0.0 0.0 0.00 0.00 0.00 89 1017.6
20140830110406 48 341 0.0 0.0 0.00 0.00 0.00 89 1018.2
20140830104856 48 341 0.0 0.0 0.00 0.00 0.00 89 1018.3
20140830103404 48 341 0.0 0.0 0.00 0.00 0.00 89 1018.4
20140830101909 48 341 0.0 0.0 0.00 0.00 0.00 89 1018.5
20140830100402 49 341 0.0 0.0 0.00 0.00 0.00 88 1018.4
20140830094906 49 341 0.0 0.0 0.00 0.00 0.00 88 1017.9
20140830093356 49 341 0.0 0.0 0.00 0.00 0.00 88 1018.1
20140830091904 49 341 0.0 0.0 0.00 0.00 0.00 88 1018.1
20140830090353 50 341 0.0 0.0 0.00 0.00 0.00 88 1018.3
20140830084858 50 341 0.0 0.0 0.00 0.00 0.00 88 1018.4
20140830083351 50 341 0.0 0.0 0.00 0.00 0.00 87 1018.5